Weather History for Taunton, MA

Change the Weather History Date:

Thursday, March 8, 2012

  Actual Average Record
Temperature  
Mean Temperature 56 °F -  
Max Temperature 61 °F 44 °F 67 °F (1987)
Min Temperature 50 °F 23 °F 4 °F (1986)
Degree Days  
Heating Degree Days 10    
Growing Degree Days 6 (Base 50)    
Moisture  
Dew Point 46 °F    
Average Humidity 72    
Maximum Humidity 80    
Minimum Humidity 60    
Precipitation  
Precipitation 0.00 in - - ()
Sea Level Pressure  
Sea Level Pressure 30.09 in    
Wind  
Wind Speed 16 mph (SSW)    
Max Wind Speed 24 mph    
Max Gust Speed 39 mph    
Visibility 10 miles    
Events      
Averages and records for this station are not official NWS values.
T = Trace of Precipitation, MM = Missing Value Source: NWS Daily Summary

Daily Weather History Graph

Daily Weather History Graph

Search for Another Location

Airport:

Trip Planner

Search our weather history database for the weather conditions in past years. The results will help you decide how hot, cold, wet, or windy it might be!

Date:

Astronomy

Mar. 08, 2012 Rise Set
Actual Time 6:06 AM EST 5:43 PM EST
Civil Twilight 5:39 AM EST 6:10 PM EST
Nautical Twilight 5:06 AM EST 6:43 PM EST
Astronomical Twilight 4:34 AM EST 7:15 PM EST
Moon 6:28 PM EST (3/8) 5:48 AM EST (3/8)
Length of Visible Light 12h 31m
Length of Day
11h 36m
Full, 100% of the Moon is Illuminated
Mar 8
Full
Mar 14
Last Quarter
Mar 22
New
Mar 30
First Quarter
Apr 6
Full

Hourly Weather History & Observations

Time (EST) Temp. Dew Point Humidity Pressure Visibility Wind Dir Wind Speed Gust Speed Precip Events Conditions
12:52 AM 50.0 °F 43.0 °F 77% 30.29 in 10.0 mi SW 12.7 mph 24.2 mph N/A   Clear
1:52 AM 50.0 °F 43.0 °F 77% 30.28 in 10.0 mi SW 10.4 mph 24.2 mph N/A   Clear
3:52 AM 51.1 °F 44.1 °F 77% 30.25 in 10.0 mi SW 12.7 mph 27.6 mph N/A   Clear
4:52 AM 51.1 °F 45.0 °F 80% 30.24 in 10.0 mi SW 16.1 mph 25.3 mph N/A   Clear
5:52 AM 51.1 °F 45.0 °F 80% 30.24 in 10.0 mi SSW 12.7 mph 26.5 mph N/A   Clear
6:52 AM 52.0 °F 45.0 °F 77% 30.23 in 10.0 mi SW 11.5 mph 24.2 mph N/A   Clear
7:52 AM 54.0 °F 45.0 °F 72% 30.22 in 10.0 mi SSW 13.8 mph 27.6 mph N/A   Clear
8:52 AM 55.9 °F 46.0 °F 69% 30.20 in 10.0 mi SW 15.0 mph 23.0 mph N/A   Clear
9:52 AM 57.9 °F 46.0 °F 65% 30.18 in 10.0 mi SW 13.8 mph 29.9 mph N/A   Clear
10:52 AM 61.0 °F 46.9 °F 60% 30.16 in 10.0 mi SSW 19.6 mph 25.3 mph N/A   Clear
11:52 AM 61.0 °F 46.9 °F 60% 30.12 in 10.0 mi SSW 17.3 mph 32.2 mph N/A   Clear
12:52 PM 61.0 °F 46.9 °F 60% 30.08 in 10.0 mi SSW 16.1 mph 35.7 mph N/A   Clear
1:52 PM 61.0 °F 46.9 °F 60% 30.05 in 10.0 mi SSW 20.7 mph 36.8 mph N/A   Clear
2:52 PM 60.1 °F 46.9 °F 62% 30.04 in 10.0 mi SW 24.2 mph 32.2 mph N/A   Clear
3:52 PM 57.9 °F 46.9 °F 67% 30.02 in 10.0 mi SW 23.0 mph 39.1 mph N/A   Clear
4:52 PM 55.9 °F 46.9 °F 72% 30.01 in 10.0 mi SSW 17.3 mph 29.9 mph N/A   Clear
5:52 PM 55.0 °F 46.9 °F 74% 30.00 in 10.0 mi SSW 16.1 mph 33.4 mph N/A   Clear
6:52 PM 55.0 °F 48.0 °F 77% 29.96 in 10.0 mi SSW 24.2 mph 35.7 mph N/A   Clear
7:52 PM 55.0 °F 48.0 °F 77% 29.94 in 10.0 mi SSW 20.7 mph 36.8 mph N/A   Clear
8:52 PM 54.0 °F 48.0 °F 80% 29.92 in 10.0 mi SSW 21.9 mph 34.5 mph N/A   Clear
9:52 PM 54.0 °F 48.0 °F 80% 29.89 in 10.0 mi SW 20.7 mph 38.0 mph N/A   Clear
10:52 PM 55.0 °F 48.0 °F 77% 29.84 in 10.0 mi SW 24.2 mph 36.8 mph N/A   Clear
11:52 PM 55.0 °F 48.0 °F 77% 29.82 in 10.0 mi SSW 20.7 mph 33.4 mph N/A   Clear